KW1M Weather Reports


time (UTC)temp
C
wind
direction
speed
KPH
gust
KPH
rain 1hr
cm
rain 24hr
cm
rain mn
cm
humidity
%
barometer
mb
20260504211548 19 158 4.8 20.9 0.00 0.00 0.00 36 1006.9
20260504210059 19 172 3.2 27.4 0.00 0.00 0.00 36 1007.0
20260504204547 20 165 11.3 32.2 0.00 0.00 0.00 34 1006.9
20260504203043 20 243 12.9 32.2 0.00 0.00 0.00 34 1006.9
20260504201535 20 209 11.3 30.6 0.00 0.00 0.00 36 1006.9
20260504200035 20 250 8.0 25.7 0.00 0.00 0.00 34 1006.9
20260504194550 20 197 11.3 25.7 0.00 0.00 0.00 35 1007.0
20260504193031 20 149 9.7 24.1 0.00 0.00 0.00 35 1007.0
20260504191532 20 221 8.0 25.7 0.00 0.00 0.00 35 1007.0
20260504190031 20 224 11.3 33.8 0.00 0.00 0.00 34 1007.3
20260504184533 19 176 11.3 30.6 0.00 0.00 0.00 36 1007.2
20260504183020 19 167 16.1 38.6 0.00 0.00 0.00 35 1007.4
20260504181519 18 143 14.5 37.0 0.00 0.00 0.00 35 1007.5
20260504180020 20 210 14.5 30.6 0.00 0.00 0.00 34 1007.5
20260504174512 18 290 9.7 30.6 0.00 0.00 0.00 37 1007.6
20260504173015 17 264 11.3 30.6 0.00 0.00 0.00 36 1007.6
20260504171509 17 263 12.9 29.0 0.00 0.00 0.00 36 1007.8
20260504081537 6 148 3.2 12.9 0.00 0.00 0.00 64 1010.5
20260504050014 5 166 0.0 6.4 0.00 0.00 0.00 61 1010.7
20260504044513 4 276 0.0 1.6 0.00 0.00 0.00 62 1010.7
20260504043012 4 281 0.0 3.2 0.00 0.00 0.00 62 1010.6
20260504041510 4 154 0.0 6.4 0.00 0.00 0.00 64 1010.6
20260504040008 4 231 0.0 6.4 0.00 0.00 0.00 64 1010.4
20260504034506 4 263 0.0 3.2 0.00 0.13 0.00 64 1010.4
20260504033005 4 297 0.0 3.2 0.00 0.13 0.00 65 1010.4
20260504031505 4 221 0.0 1.6 0.00 0.13 0.00 65 1010.3
20260504030004 5 252 0.0 3.2 0.00 0.13 0.00 64 1010.2
20260504024505 5 226 0.0 3.2 0.00 0.20 0.00 64 1010.3
20260504023003 5 235 0.0 1.6 0.00 0.20 0.00 62 1010.3
20260504021503 5 271 0.0 1.6 0.00 0.20 0.00 61 1010.4
20260504020002 5 297 0.0 1.6 0.00 0.20 0.00 59 1010.2
20260504014504 5 248 0.0 1.6 0.00 0.20 0.00 60 1010.3
20260504013001 6 316 0.0 1.6 0.00 0.20 0.00 59 1010.2
20260504011501 6 298 0.0 1.6 0.00 0.20 0.00 59 1009.9
20260504010123 6 302 0.0 1.6 0.00 0.20 0.00 58 1009.9
20260504004559 6 294 0.0 0.0 0.00 0.20 0.00 59 1009.6
20260504003059 6 281 0.0 1.6 0.00 0.20 0.00 58 1009.5
20260504001611 6 288 0.0 3.2 0.00 0.20 0.00 57 1009.4
20260504000105 6 300 0.0 1.6 0.00 0.20 0.00 56 1009.1
20260503234658 7 283 0.0 9.7 0.00 0.25 0.00 55 1009.0
20260503233056 7 291 0.0 4.8 0.00 0.25 0.00 53 1008.8
20260503231557 8 256 0.0 6.4 0.00 0.25 0.00 52 1008.7
20260503230059 8 232 1.6 8.0 0.00 0.25 0.00 49 1008.5
20260503224555 8 283 1.6 11.3 0.00 0.46 0.00 47 1008.3
20260503223055 8 301 1.6 11.3 0.00 0.46 0.00 47 1008.2
20260503221553 9 318 1.6 12.9 0.00 0.46 0.00 46 1008.0
20260503220052 9 295 1.6 12.9 0.00 0.46 0.00 47 1007.9
20260503214555 9 330 0.0 9.7 0.00 0.53 0.00 46 1007.8
20260503213117 9 257 4.8 14.5 0.00 0.53 0.00 44 1007.7